Location: Peebles
(55.6412°N, 3.1714°W)
Time: 09:38:54
(UTC+01:00)

NOSS 3-2 (A) - Pass Details

Date: 26 September 2021
Orbit: 767 x 1440 km, 63.4° (Epoch: 19 October)

Event Time Altitude Azimuth Distance (km) Brightness Sun altitude
Rises 23:35:36 0° 257° (WSW) 3,454 6.5 -33.1°
Reaches altitude 10° 23:37:59 10° 262° (W) 2,592 5.9 -33.3°
Maximum altitude 23:43:56 55° 340° (NNW) 1,215 4.1 -33.6°
Drops below altitude 10° 23:50:59 10° 57° (ENE) 3,059 6.2 -34.0°
Sets 23:54:01 0° 62° (ENE) 4,128 6.8 -34.2°
